The Dalles, WA

6:09 AM PDT on July 23, 2019 (GMT -0700)
Columbia Gorge Regional-The Dalles

Weather History for KDLS - May, 2019

Change the Weather History Date:

Friday, May 10, 2019

  Actual Average Record
Temperature  
Mean Temperature 65 °F -  
Max Temperature 87 °F 71 °F 92 °F (1969)
Min Temperature 44 °F 48 °F 33 °F (1999)
Growing Degree Days 15 (Base 50)    
Moisture  
Dew Point 36 °F    
Average Humidity 41    
Maximum Humidity 73    
Minimum Humidity 9    
Precipitation  
Precipitation 0.00 in - - ()
Sea Level Pressure  
Sea Level Pressure 29.90 in    
Wind  
Wind Speed 3 mph (ESE)    
Max Wind Speed 7 mph    
Max Gust Speed -    
Visibility 10 miles    
Events      
Averages and records for this station are not official NWS values.
T = Trace of Precipitation, MM = Missing Value Source: NWS Daily Summary

Daily Weather History Graph

Daily Weather History Graph

Search for Another Location

Airport or City:

Astronomy

May. 10, 2019 Rise Set
Actual Time 5:40 AM PDT 8:22 PM PDT
Civil Twilight 5:06 AM PDT 8:57 PM PDT
Nautical Twilight 4:23 AM PDT 9:40 PM PDT
Astronomical Twilight 3:33 AM PDT 10:30 PM PDT
Moon 10:42 AM PDT (5/10) 1:24 AM PDT (5/10)
Length of Visible Light 15h 51m
Length of Day
14h 42m
Waxing Crescent, 36% of the Moon is Illuminated
May 10
Waxing Crescent
May 11
First Quarter
May 18
Full
May 26
Last Quarter
Jun 3
New

Hourly Weather History & Observations

Time (PDT) Temp. Dew Point Humidity Pressure Visibility Wind Dir Wind Speed Gust Speed Precip Events Conditions
12:53 AM 52.0 °F 37.0 °F 57% 29.96 in 10.0 mi ESE 5.8 mph - N/A   Clear
1:53 AM 52.0 °F 36.0 °F 54% 29.96 in 10.0 mi ESE 3.5 mph - N/A   Clear
2:53 AM 46.9 °F 37.0 °F 68% 29.96 in 10.0 mi Calm Calm - N/A   Clear
3:53 AM 46.9 °F 36.0 °F 66% 29.96 in 10.0 mi East 3.5 mph - N/A   Clear
4:53 AM 44.1 °F 35.1 °F 71% 29.96 in 10.0 mi Calm Calm - N/A   Clear
5:53 AM 44.1 °F 36.0 °F 73% 29.96 in 10.0 mi Calm Calm - N/A   Clear
6:53 AM 46.9 °F 37.9 °F 71% 29.97 in 10.0 mi Calm Calm - N/A   Clear
7:53 AM 52.0 °F 39.0 °F 61% 29.99 in 10.0 mi Calm Calm - N/A   Clear
8:53 AM 55.9 °F 39.9 °F 55% 29.99 in 10.0 mi Calm Calm - N/A   Clear
9:53 AM 62.1 °F 39.9 °F 44% 29.97 in 10.0 mi Calm Calm - N/A   Clear
10:53 AM 66.9 °F 37.0 °F 33% 29.95 in 10.0 mi Calm Calm - N/A   Clear
11:53 AM 73.9 °F 37.9 °F 27% 29.93 in 10.0 mi East 3.5 mph - N/A   Clear
12:53 PM 79.0 °F 39.0 °F 24% 29.90 in 10.0 mi Variable 4.6 mph - N/A   Clear
1:53 PM 82.9 °F 37.9 °F 20% 29.87 in 10.0 mi North 5.8 mph - N/A   Clear
2:53 PM 84.0 °F 37.0 °F 19% 29.86 in 10.0 mi Calm Calm - N/A   Clear
3:53 PM 84.0 °F 33.1 °F 16% 29.84 in 10.0 mi Calm Calm - N/A   Clear
4:53 PM 86.0 °F 19.9 °F 9% 29.82 in 10.0 mi Variable 4.6 mph - N/A   Clear
5:53 PM 84.9 °F 25.0 °F 11% 29.81 in 10.0 mi SSE 3.5 mph - N/A   Clear
6:53 PM 84.9 °F 28.9 °F 13% 29.80 in 10.0 mi Calm Calm - N/A   Clear
7:53 PM 75.9 °F 43.0 °F 31% 29.81 in 10.0 mi NNE 4.6 mph - N/A   Clear
8:53 PM 70.0 °F 39.0 °F 32% 29.83 in 10.0 mi WSW 3.5 mph - N/A   Clear
9:53 PM 66.0 °F 37.9 °F 36% 29.85 in 10.0 mi WSW 3.5 mph - N/A   Clear
10:53 PM 63.0 °F 39.0 °F 41% 29.86 in 10.0 mi Calm Calm - N/A   Clear
11:53 PM 57.9 °F 39.0 °F 49% 29.86 in 10.0 mi East 6.9 mph - N/A   Clear